Location: Lecco
(45.8566°N, 9.3977°E)
Time: 04:24:15
(UTC+02:00)

Transit 4A - Pass Details

Date: 23 August 2020
Orbit: 863 x 982 km, 66.8° (Epoch: 23 September)

Event Time Altitude Azimuth Distance (km) Brightness Sun altitude
Rises 18:27:22 0° 308° (NW) 3,681 11.8 17.9°
Reaches altitude 10° 18:32:16 10° 276° (W) 2,736 12.8 17.1°
Maximum altitude 18:33:53 11° 261° (W) 2,659 12.8 16.8°
Drops below altitude 10° 18:35:30 10° 246° (WSW) 2,732 11.8 16.5°
Sets 18:40:24 0° 213° (SSW) 3,665 11.5 15.7°
